Ketchikan, AK

4:05 AM AKDT on August 22, 2017 (GMT -0800)
Ketchikan International

Weather History for PAKT - September, 2013

Change the Weather History Date:

Tuesday, September 17, 2013

  Actual Average Record
Temperature  
Mean Temperature 55 °F -  
Max Temperature 59 °F 59 °F 75 °F (1957)
Min Temperature 51 °F 46 °F 37 °F (1992)
Degree Days  
Heating Degree Days 10    
Growing Degree Days 5 (Base 50)    
Moisture  
Dew Point 53 °F    
Average Humidity 97    
Maximum Humidity 100    
Minimum Humidity 78    
Precipitation  
Precipitation 0.25 in - - ()
Sea Level Pressure  
Sea Level Pressure 29.80 in    
Wind  
Wind Speed 8 mph (SSE)    
Max Wind Speed 15 mph    
Max Gust Speed -    
Visibility 10 miles    
Events Rain    
Averages and records for this station are not official NWS values.
T = Trace of Precipitation, MM = Missing Value Source: NWS Daily Summary

Daily Weather History Graph

Daily Weather History Graph

Search for Another Location

Airport or City:

Trip Planner

Search our weather history database for the weather conditions in past years. The results will help you decide how hot, cold, wet, or windy it might be!

Date:

Astronomy

Sep. 17, 2013 Rise Set
Actual Time 6:23 AM AKDT 6:57 PM AKDT
Civil Twilight 5:46 AM AKDT 7:34 PM AKDT
Nautical Twilight 5:02 AM AKDT 8:18 PM AKDT
Astronomical Twilight 4:14 AM AKDT 9:05 PM AKDT
Moon 5:55 PM AKDT (9/17) 4:13 AM AKDT (9/17)
Length of Visible Light 13h 47m
Length of Day
12h 34m
Waxing Gibbous, 96% of the Moon is Illuminated
Sep 17
Waxing Gibbous
Sep 19
Full
Sep 26
Last Quarter
Oct 4
New
Oct 11
First Quarter

Hourly Weather History & Observations

Time (AKDT) Temp. Dew Point Humidity Pressure Visibility Wind Dir Wind Speed Gust Speed Precip Events Conditions
12:22 AM 53.6 °F 53.6 °F 100% 29.78 in 10.0 mi SSE 5.8 mph - N/A   Overcast
12:53 AM 53.1 °F 53.1 °F 100% 29.79 in 10.0 mi South 5.8 mph - N/A   Overcast
1:53 AM 53.1 °F 53.1 °F 100% 29.79 in 10.0 mi South 4.6 mph - 0.01 in Rain Light Rain
2:08 AM 53.6 °F 53.6 °F 100% 29.78 in 10.0 mi SSE 5.8 mph - 0.00 in   Mostly Cloudy
2:48 AM 53.6 °F 53.6 °F 100% 29.78 in 10.0 mi SSE 8.1 mph - 0.01 in   Mostly Cloudy
2:53 AM 54.0 °F 53.1 °F 97% 29.79 in 10.0 mi SSE 9.2 mph - 0.01 in   Mostly Cloudy
3:07 AM 53.6 °F 53.6 °F 100% 29.78 in 10.0 mi SSE 8.1 mph - N/A   Overcast
3:53 AM 53.1 °F 53.1 °F 100% 29.78 in 10.0 mi SSE 8.1 mph - N/A   Mostly Cloudy
4:00 AM 53.6 °F 53.6 °F 100% 29.77 in 10.0 mi SSE 8.1 mph - N/A   Overcast
4:35 AM 53.6 °F 53.6 °F 100% 29.78 in 10.0 mi SSE 6.9 mph - N/A   Mostly Cloudy
4:44 AM 53.6 °F 53.6 °F 100% 29.78 in 10.0 mi SE 9.2 mph - N/A   Overcast
4:53 AM 54.0 °F 54.0 °F 100% 29.78 in 10.0 mi SE 9.2 mph - N/A   Overcast
5:53 AM 54.0 °F 54.0 °F 100% 29.77 in 10.0 mi SSE 8.1 mph - N/A   Overcast
6:15 AM 53.6 °F 53.6 °F 100% 29.77 in 10.0 mi SSE 9.2 mph - N/A   Overcast
6:53 AM 54.0 °F 54.0 °F 100% 29.78 in 10.0 mi SSE 10.4 mph - N/A   Overcast
7:53 AM 55.0 °F 55.0 °F 100% 29.78 in 10.0 mi SE 10.4 mph - 0.00 in   Overcast
8:53 AM 54.0 °F 54.0 °F 100% 29.78 in 10.0 mi ESE 12.7 mph - 0.02 in Rain Light Rain
9:53 AM 55.0 °F 55.0 °F 100% 29.79 in 10.0 mi SE 11.5 mph - 0.01 in Rain Light Rain
10:53 AM 55.0 °F 55.0 °F 100% 29.79 in 10.0 mi SE 10.4 mph - 0.05 in Rain Light Rain
11:53 AM 57.0 °F 55.0 °F 93% 29.79 in 10.0 mi SE 12.7 mph - 0.00 in   Overcast
12:53 PM 57.9 °F 55.0 °F 90% 29.80 in 10.0 mi SE 15.0 mph - N/A   Mostly Cloudy
1:53 PM 57.9 °F 53.1 °F 84% 29.79 in 10.0 mi SE 13.8 mph - N/A   Mostly Cloudy
2:53 PM 59.0 °F 52.0 °F 78% 29.79 in 10.0 mi SSE 10.4 mph - N/A   Overcast
3:53 PM 59.0 °F 52.0 °F 78% 29.79 in 10.0 mi SSE 11.5 mph - N/A   Mostly Cloudy
4:53 PM 57.9 °F 52.0 °F 81% 29.78 in 10.0 mi SSE 9.2 mph - N/A   Mostly Cloudy
5:53 PM 57.0 °F 52.0 °F 83% 29.78 in 10.0 mi SE 11.5 mph - N/A   Overcast
6:53 PM 54.0 °F 54.0 °F 100% 29.79 in 5.0 mi SE 9.2 mph - 0.03 in Rain Light Rain
7:53 PM 53.1 °F 53.1 °F 100% 29.81 in 10.0 mi ESE 11.5 mph - 0.10 in Rain Light Rain
8:53 PM 52.0 °F 51.1 °F 97% 29.81 in 10.0 mi SSE 8.1 mph - 0.01 in Rain Light Rain
9:13 PM 51.8 °F 51.8 °F 100% 29.81 in 10.0 mi SSE 6.9 mph - 0.01 in Rain Light Rain
9:39 PM 51.8 °F 51.8 °F 100% 29.82 in 10.0 mi SSE 6.9 mph - 0.01 in   Overcast
9:53 PM 52.0 °F 52.0 °F 100% 29.82 in 10.0 mi South 4.6 mph - 0.01 in   Overcast
10:25 PM 53.6 °F 51.8 °F 94% 29.82 in 10.0 mi SSE 9.2 mph - N/A   Overcast
10:37 PM 51.8 °F 51.8 °F 100% 29.82 in 10.0 mi SSE 6.9 mph - N/A   Overcast
10:53 PM 53.1 °F 53.1 °F 100% 29.83 in 10.0 mi SE 8.1 mph - N/A   Overcast
11:13 PM 51.8 °F 51.8 °F 100% 29.82 in 10.0 mi SSE 5.8 mph - N/A   Overcast
11:25 PM 53.6 °F 51.8 °F 94% 29.83 in 10.0 mi SSE 5.8 mph - N/A   Overcast
11:32 PM 53.6 °F 51.8 °F 94% 29.83 in 10.0 mi SE 6.9 mph - N/A   Overcast
11:42 PM 53.6 °F 53.6 °F 100% 29.83 in 10.0 mi SSE 4.6 mph - N/A   Overcast
11:53 PM 52.0 °F 52.0 °F 100% 29.83 in 10.0 mi SSE 3.5 mph - N/A   Overcast